Weather in Podvoloshino

Russia / Irkutsk Oblast     58°14′53″N   108°25′44″E
temp.,
°C
wind,
m/s
gust,
m/s
humid.,
%
clouds,
%
prec.,
mm/h
press.,
hPa
HPBL,
m
8 may, sat
sat823:00−2ene119512 0.0 101710
02:00−3ne21965 0.0 101715
05:00−3nne11977 0.0 101615
08:00+5e36750 0.0 1014377
11:00+9e34665 0.0 10121023
14:00+11e34545 0.0 10101576
17:00+11e345224 0.1 10101704
20:00+4ne11913 0.2 101121
9 may, sun
sun923:00−1ne22950 0.0 101212
02:00−2nne22955 0.0 101222
05:00−3nne11965 0.0 101223
08:00+5ene246589 0.0 1011310
11:00+9ene3454100 0.0 10111106
14:00+10ne3347100 0.1 10101893
17:00+10ne3448100 0.1 10101700
20:00+6nne237122 0.1 101138
10 may, mon
mon1023:00+2nne23905 0.0 101253
02:00+1n27945 0.0 1013146
05:000n38955 0.0 1013185
08:00+6nne48653 0.0 1013536
11:00+10ne57495 0.0 10131561
14:00+12nne6642100 0.0 10122200
17:00+10nne575592 0.3 10141303
20:00+8nne496476 0.4 1015746
11 may, tue
tue1123:00+3n310836 0.0 1017241
02:00+2n4109670 0.0 1017359
05:00+3n4782100 0.0 1017682
08:00+3n4683100 0.0 1018887
11:00+4n4783100 0.1 1018766
14:00+5nne4674100 0.1 1018959
17:00+5n4680100 0.4 1018878
20:00+3n4894100 1.1 1019615
12 may, wed
wed1223:00+2n3886100 0.4 1019598
02:00−1nnw27929 0.4 1018213
05:00−3nnw239777 0.0 101864
08:00+1n3591100 0.3 1017559
11:00+4nne3559100 0.8 10161468
14:00+6n4554100 1.3 10151532
17:00+6nne454990 0.4 10141582
20:00+3nne376598 0.7 1016357